Wind_Speed
2 4 6 8 10 11 13 15 17 19 20 22 23 25 26 27 27 28 29 30 31 32 32 32 33 34 35 35 35 35 36 36 36 37 37 38 38 38 38 38 39 39 39 39
0 2 5 6 8 10 11 14 16 18 19 21 22 24 25 26 27 27 27 28 30 31 32 32 32 33 35 35 36 36 37 37 37 38 39 38 38 37 38 38 38 38 39 39
1 2 4 6 8 10 11 13 15 17 19 20 22 22 23 25 26 26 27 27 28 30 31 32 33 33 34 35 36 36 36 37 38 38 38 37 38 38 38 39 39 40 39 39
3 3 4 6 7 9 11 13 14 17 19 20 22 22 22 24 25 26 27 27 28 29 31 32 33 34 34 35 36 36 37 37 38 38 39 39 39 39 39 39 40 40 39 39
5 5 6 7 9 10 11 12 14 15 18 19 20 22 22 23 24 24 26 27 28 29 30 31 33 34 34 35 35 36 36 37 37 38 39 39 39 40 40 40 40 39 39 39
7 7 7 8 9 10 11 12 13 14 16 17 18 20 21 22 23 24 25 26 27 28 29 29 30 32 33 34 35 36 36 36 37 38 38 39 39 39 40 40 40 39 39 39
8 8 8 8 9 9 10 10 12 13 14 15 17 19 20 21 22 23 25 26 26 27 27 28 29 30 31 33 34 34 35 35 36 36 37 38 39 39 39 39 39 39 39 39
10 9 9 8 8 8 9 9 10 12 13 14 16 17 18 20 21 23 24 25 25 26 27 27 28 28 30 31 32 33 34 34 35 35 36 37 38 38 38 38 38 38 38 38
12 11 10 9 8 8 9 9 10 11 11 12 13 15 17 18 20 22 23 23 24 24 25 26 27 28 28 29 30 31 32 33 33 34 35 36 36 37 37 37 37 37 37 38
13 12 11 11 9 9 9 10 10 11 11 11 11 12 14 16 17 19 20 21 22 23 23 24 25 26 26 27 27 29 30 31 32 33 34 34 34 34 34 35 35 36 37 37
14 13 12 12 11 11 11 11 12 12 13 13 13 12 13 13 15 16 18 19 21 22 23 24 24 24 25 26 27 28 29 30 31 31 32 32 31 31 31 31 32 33 34 34
16 15 14 13 12 11 12 12 13 14 14 15 15 13 13 15 16 17 18 19 19 21 22 23 23 24 25 26 27 27 27 28 28 28 28 28 28 28 29 29 30 30 31 31
18 17 16 15 13 13 13 13 14 15 15 15 15 14 15 16 17 18 18 19 19 20 21 22 23 24 25 25 26 26 26 26 25 25 25 25 26 27 27 27 28 27 28 28
19 19 18 17 16 16 15 16 16 17 17 16 16 16 17 18 18 18 19 19 19 20 21 21 22 24 25 25 24 24 23 23 23 23 24 25 25 26 27 27 27 27 27 27
21 20 19 19 19 18 18 18 18 18 18 18 16 17 18 19 18 19 19 19 20 20 21 21 22 23 23 23 23 23 23 22 22 23 23 24 25 26 26 27 27 27 27 27
24 23 22 21 21 20 19 19 19 19 20 19 19 19 20 21 20 20 20 21 20 20 21 21 22 22 22 22 22 23 23 23 23 23 23 23 23 24 25 25 26 26 27 27
26 26 25 23 24 23 21 21 21 21 21 21 21 21 22 22 22 22 22 22 21 21 21 21 21 21 22 22 23 23 23 23 23 23 23 22 23 23 24 24 24 25 25 25
28 28 28 27 26 26 24 24 24 24 23 23 23 23 24 24 24 24 24 23 22 22 22 22 21 22 23 23 23 23 23 24 24 23 23 23 23 23 23 23 24 24 24 24
30 30 30 30 29 28 26 26 26 25 25 25 24 24 25 25 25 25 25 24 24 24 24 24 24 24 24 24 24 24 24 24 24 23 23 23 23 23 23 23 23 23 23 23
32 32 33 32 32 31 29 28 27 28 27 27 28 27 27 27 27 25 26 26 26 26 26 26 26 26 26 26 26 25 25 25 25 25 24 23 22 22 22 22 22 22 22 22
35 35 35 35 35 33 31 31 30 29 30 30 30 30 30 29 29 28 27 26 27 27 27 27 27 27 27 27 27 26 26 26 26 26 25 24 24 23 22 22 22 22 22 22
37 38 37 36 36 34 33 33 33 33 33 33 33 33 33 32 31 31 30 30 29 29 29 29 28 28 28 28 28 28 27 27 27 27 26 26 26 25 24 23 23 23 23 23
39 39 39 38 37 36 36 37 37 37 37 36 36 36 36 35 35 34 33 32 32 32 32 31 31 30 29 29 29 29 29 29 28 28 28 28 28 27 27 26 25 25 25 25
41 40 41 41 39 39 40 41 40 41 40 40 40 39 39 38 37 37 36 35 35 35 35 34 33 32 31 31 31 31 31 31 30 30 29 29 29 29 28 28 27 27 27 27
42 43 44 44 43 44 43 43 43 43 44 43 42 42 42 42 40 40 39 38 38 38 37 36 35 35 34 33 33 33 33 33 32 31 31 31 31 31 30 30 29 29 29 30
42 45 47 46 46 47 45 44 45 45 46 45 45 44 44 44 43 42 42 41 40 39 38 37 37 37 36 36 35 35 35 34 34 33 32 32 32 32 32 31 31 31 31 31
Wind_Direction
158 198 210 218 221 227 230 233 237 235 234 235 234 234 237 238 238 239 239 240 241 242 244 246 249 250 251 253 255 257 258 259 260 260 261 263 264 265 265 266 266 267 268 268
63 221 227 231 232 235 237 237 239 239 239 238 238 238 239 240 240 240 241 243 243 245 246 248 250 252 253 256 257 259 260 260 261 262 263 264 264 265 265 265 266 267 268 267
357 284 257 247 244 242 244 244 241 242 241 243 243 242 242 241 241 243 244 245 247 248 250 251 253 254 256 257 259 260 262 262 263 263 263 263 264 265 267 268 269 269 269 268
335 310 285 270 260 254 254 252 250 248 246 246 245 242 242 243 244 246 247 249 250 251 252 253 254 256 258 258 260 261 263 264 264 264 264 265 265 267 268 269 269 269 269 269
337 317 299 286 275 268 264 260 256 253 251 251 249 248 247 247 246 246 248 250 252 253 254 256 257 259 260 261 261 262 263 264 265 265 265 265 266 268 269 269 270 270 270 269
339 323 307 297 286 278 273 269 263 258 254 253 252 252 251 251 249 248 250 253 255 258 260 261 262 263 263 263 263 263 264 265 265 266 266 266 267 269 270 270 270 270 270 269
346 332 316 306 293 285 281 277 273 265 258 256 255 256 256 254 253 254 255 257 259 261 264 265 266 266 266 266 265 265 265 266 267 267 268 268 268 269 270 270 270 270 270 269
351 341 329 317 304 294 289 284 280 275 268 264 261 260 259 259 256 256 258 260 262 264 265 266 267 268 268 268 268 268 267 268 268 268 268 268 269 269 270 270 270 270 269 269
349 344 340 330 316 306 294 289 285 283 279 275 268 264 262 261 259 259 260 263 265 266 265 266 268 269 270 270 269 268 268 268 269 269 269 269 269 270 270 270 269 269 269 270
347 342 341 334 323 313 304 295 289 287 287 285 280 273 269 266 263 263 264 265 265 266 266 267 269 271 271 271 271 270 270 270 270 271 270 270 270 271 271 270 268 268 269 270
343 341 338 330 324 316 309 301 295 290 289 287 284 282 278 272 270 268 268 269 268 267 268 269 271 271 271 271 272 272 273 273 274 274 272 271 270 270 271 271 270 270 270 271
333 333 330 325 318 314 309 303 298 294 292 291 288 286 281 278 277 277 276 276 276 274 272 272 272 272 272 272 273 274 274 274 274 275 274 270 269 269 270 271 272 272 272 272
324 324 322 318 314 311 308 304 299 295 294 293 289 285 281 280 280 279 280 280 279 277 274 273 272 272 273 274 275 275 276 275 274 273 273 271 270 270 271 271 271 272 273 273
316 315 313 311 308 305 302 301 300 295 293 292 289 282 278 279 280 281 282 282 281 279 277 276 275 275 276 275 276 275 274 273 273 273 274 274 273 272 271 271 270 270 272 273
311 310 308 306 303 300 298 297 296 294 292 290 286 281 278 278 281 281 283 282 281 281 280 279 280 279 278 275 274 274 274 274 274 275 276 275 274 273 273 271 270 271 272 273
306 305 304 302 301 299 297 296 294 292 289 288 287 285 281 281 282 282 283 284 283 282 283 283 282 279 277 275 274 274 276 276 276 277 278 277 276 276 275 274 272 272 273 273
303 302 300 298 296 295 295 294 292 290 289 287 287 284 281 282 282 282 283 284 284 284 285 285 283 280 278 277 275 274 275 275 276 277 277 277 276 277 276 275 274 273 273 273
300 299 298 296 293 292 293 291 289 287 287 287 286 285 283 282 281 282 282 282 282 283 282 283 283 282 281 279 276 275 275 275 276 276 275 275 276 277 277 276 275 274 274 273
296 296 295 295 293 291 291 290 287 285 285 285 285 285 283 282 281 281 281 281 281 281 282 282 282 282 281 278 276 275 276 275 275 275 275 276 278 278 277 277 278 276 276 276
290 290 290 292 292 292 293 291 287 284 283 282 283 283 282 280 280 281 281 280 279 279 280 281 281 281 280 278 277 276 275 273 272 273 275 277 278 279 279 278 277 276 276 276
286 286 286 287 288 289 290 288 286 285 285 284 284 284 282 281 280 280 280 280 279 278 279 280 279 280 280 279 278 276 274 273 272 273 275 275 276 277 277 276 276 277 278 279
283 284 284 285 285 286 284 283 282 282 283 284 283 283 281 279 278 278 279 279 279 278 278 279 279 279 280 279 277 275 274 273 273 274 274 274 274 273 274 275 276 278 278 279
281 282 283 282 283 282 281 280 280 281 282 281 280 280 279 278 277 278 278 278 278 278 279 278 277 277 277 277 276 275 273 273 273 273 274 273 272 273 274 276 277 277 277 278
280 280 279 279 279 279 279 279 279 280 280 280 279 279 278 279 278 278 279 278 278 278 278 277 276 275 274 275 275 274 272 272 272 272 272 272 272 272 274 276 276 277 277 278
281 280 278 278 278 277 278 279 278 278 279 279 279 279 279 279 279 279 279 278 277 277 276 275 274 274 273 273 273 273 272 271 270 270 270 271 272 273 273 274 275 276 277 278
280 279 278 278 278 278 278 278 277 278 279 278 278 279 279 279 279 278 278 278 277 276 275 274 273 273 272 272 272 272 271 269 268 269 269 270 271 272 272 273 274 275 276 277
Height
5710 5711 5712 5712 5713 5714 5715 5716 5717 5719 5720 5721 5723 5725 5728 5729 5732 5734 5736 5739 5741 5743 5744 5746 5748 5749 5750 5752 5753 5753 5754 5754 5754 5755 5755 5755 5755 5755 5755 5755 5754 5754 5754 5753
5712 5712 5712 5712 5713 5713 5714 5715 5716 5717 5718 5719 5721 5723 5724 5726 5728 5730 5732 5734 5735 5737 5739 5740 5741 5743 5744 5745 5745 5746 5746 5746 5747 5747 5746 5746 5746 5746 5745 5745 5745 5745 5745 5744
5712 5713 5712 5712 5712 5712 5713 5713 5714 5715 5716 5716 5718 5720 5721 5722 5724 5725 5727 5729 5730 5731 5733 5734 5735 5736 5737 5738 5738 5738 5738 5739 5739 5738 5738 5738 5737 5737 5737 5737 5737 5736 5736 5735
5712 5712 5712 5711 5711 5711 5711 5712 5712 5712 5713 5714 5715 5716 5718 5719 5720 5721 5722 5723 5725 5726 5726 5727 5728 5729 5729 5730 5730 5731 5731 5730 5730 5730 5729 5729 5729 5729 5728 5728 5728 5727 5727 5727
5713 5712 5711 5711 5710 5710 5710 5709 5710 5710 5710 5711 5712 5713 5715 5714 5716 5717 5718 5718 5719 5720 5720 5721 5721 5722 5722 5722 5722 5722 5722 5722 5722 5721 5721 5720 5720 5720 5719 5719 5719 5718 5718 5718
5712 5711 5710 5709 5709 5708 5708 5708 5707 5707 5707 5708 5709 5709 5710 5710 5711 5712 5713 5713 5713 5714 5714 5714 5714 5714 5714 5714 5714 5714 5714 5713 5713 5712 5712 5712 5711 5711 5710 5710 5709 5709 5709 5709
5712 5711 5709 5708 5707 5707 5706 5706 5705 5705 5704 5705 5705 5704 5706 5706 5706 5707 5707 5707 5708 5708 5708 5708 5708 5707 5707 5707 5706 5706 5706 5705 5704 5704 5703 5703 5702 5702 5701 5700 5700 5700 5700 5699
5712 5710 5708 5706 5705 5705 5703 5703 5704 5702 5702 5702 5701 5700 5702 5701 5701 5701 5701 5702 5701 5702 5702 5701 5701 5700 5700 5699 5698 5698 5697 5697 5696 5695 5694 5694 5693 5692 5692 5691 5690 5690 5690 5690
5711 5709 5707 5705 5703 5702 5701 5700 5700 5699 5698 5698 5697 5697 5697 5696 5695 5695 5696 5696 5695 5695 5695 5694 5694 5693 5693 5692 5691 5690 5689 5689 5688 5687 5686 5685 5684 5683 5682 5682 5681 5680 5680 5680
5709 5708 5705 5703 5701 5700 5699 5698 5697 5696 5694 5694 5694 5693 5693 5691 5691 5690 5690 5690 5689 5689 5688 5688 5687 5686 5685 5684 5683 5682 5682 5681 5680 5679 5677 5676 5675 5674 5673 5672 5672 5671 5671 5671
5708 5706 5704 5701 5699 5697 5696 5695 5693 5692 5691 5690 5689 5691 5688 5687 5686 5685 5684 5683 5683 5682 5682 5681 5680 5679 5678 5677 5676 5675 5674 5673 5672 5670 5669 5667 5666 5665 5664 5664 5663 5662 5662 5662
5706 5704 5701 5699 5697 5694 5693 5691 5690 5689 5688 5686 5684 5688 5683 5682 5680 5680 5679 5678 5677 5676 5675 5674 5673 5672 5671 5669 5668 5667 5666 5665 5664 5662 5661 5659 5658 5658 5657 5656 5655 5654 5654 5653
5703 5701 5698 5696 5696 5693 5690 5688 5686 5685 5683 5681 5680 5683 5678 5676 5675 5674 5673 5672 5671 5669 5668 5667 5666 5665 5664 5662 5661 5660 5658 5657 5656 5655 5654 5652 5651 5650 5650 5649 5648 5647 5647 5646
5700 5698 5696 5694 5690 5688 5686 5685 5682 5680 5678 5677 5676 5675 5674 5671 5670 5669 5667 5666 5665 5663 5662 5661 5659 5658 5657 5655 5654 5652 5651 5650 5649 5648 5647 5645 5644 5643 5642 5642 5641 5640 5640 5639
5695 5694 5691 5689 5686 5684 5682 5680 5678 5675 5673 5672 5671 5669 5668 5665 5664 5663 5661 5660 5658 5657 5655 5654 5653 5651 5650 5648 5647 5646 5645 5644 5642 5641 5640 5638 5637 5636 5635 5634 5633 5633 5632 5632
5690 5688 5686 5684 5681 5678 5676 5675 5672 5670 5668 5666 5664 5664 5661 5660 5658 5656 5655 5654 5652 5651 5649 5648 5646 5644 5643 5642 5640 5639 5638 5637 5636 5635 5633 5632 5630 5629 5628 5627 5626 5625 5625 5624
5684 5682 5679 5678 5675 5672 5672 5670 5666 5664 5662 5660 5658 5658 5655 5653 5651 5650 5649 5647 5646 5644 5642 5641 5639 5638 5636 5635 5634 5632 5631 5630 5629 5628 5627 5625 5624 5622 5621 5620 5619 5618 5617 5617
5677 5674 5671 5670 5669 5666 5667 5663 5660 5657 5656 5653 5652 5650 5648 5646 5645 5643 5641 5640 5638 5637 5635 5634 5632 5631 5629 5628 5627 5626 5625 5624 5622 5621 5620 5618 5617 5615 5614 5613 5612 5611 5610 5610
5670 5666 5664 5662 5659 5658 5658 5655 5652 5649 5648 5646 5644 5642 5640 5639 5637 5636 5634 5632 5631 5629 5628 5626 5625 5623 5622 5620 5619 5618 5617 5616 5615 5614 5613 5611 5610 5609 5607 5606 5605 5604 5604 5603
5661 5658 5656 5653 5650 5649 5651 5647 5643 5642 5640 5638 5636 5634 5632 5630 5629 5629 5626 5624 5623 5621 5620 5618 5617 5616 5614 5613 5611 5611 5610 5609 5608 5607 5606 5605 5603 5602 5600 5599 5598 5598 5597 5596
5651 5648 5646 5643 5640 5640 5640 5636 5634 5633 5632 5629 5626 5625 5623 5622 5621 5620 5617 5616 5614 5613 5611 5610 5609 5607 5606 5604 5603 5602 5602 5601 5600 5599 5598 5597 5596 5595 5594 5593 5592 5591 5590 5589
5640 5638 5636 5633 5631 5633 5629 5626 5624 5623 5620 5618 5616 5615 5613 5612 5611 5609 5608 5607 5605 5604 5603 5601 5600 5599 5597 5596 5595 5594 5594 5593 5592 5592 5591 5590 5589 5588 5587 5586 5585 5584 5583 5583
5629 5628 5625 5623 5623 5621 5617 5615 5613 5611 5610 5608 5606 5605 5603 5602 5601 5600 5598 5597 5595 5594 5593 5592 5591 5590 5589 5587 5586 5586 5585 5584 5584 5583 5582 5582 5581 5580 5580 5579 5578 5577 5576 5575
5617 5615 5612 5610 5611 5608 5605 5603 5601 5600 5598 5596 5594 5593 5591 5590 5590 5589 5587 5586 5585 5584 5582 5581 5580 5580 5579 5578 5577 5576 5576 5575 5575 5574 5573 5573 5572 5572 5571 5571 5570 5569 5568 5566
5604 5600 5598 5596 5596 5594 5593 5591 5589 5587 5585 5584 5582 5581 5579 5578 5577 5576 5575 5574 5573 5572 5571 5570 5569 5569 5568 5567 5567 5566 5565 5565 5565 5564 5564 5563 5563 5562 5562 5561 5561 5560 5559 5558
5591 5587 5583 5582 5581 5578 5579 5577 5575 5574 5572 5571 5570 5569 5567 5565 5564 5564 5563 5561 5560 5560 5559 5558 5557 5557 5556 5556 5555 5555 5554 5554 5554 5554 5554 5553 5553 5552 5552 5552 5551 5550 5549 5548